Location: Eisten
(46.1966°N, 7.8966°E)
Time: 13:40:14
(UTC+00:00)

Daily predictions for brighter satellites

Satellite Brightness Start Highest point End
(mag) Time Altitude Azimuth Time Altitude Azimuth Time Altitude Azimuth
Cosmos 1634 Rocket 4.5 19:25:11 10° NNW 19:31:25 67° W 19:37:35 10° S
IGS 5A 3.9 19:30:29 10° SE 19:34:26 45° ENE 19:38:24 10° N
Cosmos 2221 2.5 19:32:55 10° N 19:37:13 68° E 19:41:31 10° SSE
Cosmos 2360 Rocket 4.3 19:35:04 10° N 19:37:45 13° NE 19:40:25 10° ENE
Meteor 2-13 Rocket 4.5 19:32:06 10° S 19:38:12 80° E 19:44:18 10° N
ATLAS 2AS CENTAUR R/B 3.1 19:30:50 10° SSW 19:38:45 83° SE 19:46:32 10° NE
Resurs 01 Rocket 1.9 19:36:15 10° SSE 19:40:34 53° ENE 19:44:55 10° N
Meteor 2-2 Rocket 4.4 19:35:15 10° NNW 19:41:06 84° W 19:46:48 10° S
Cosmos 2058 3.0 19:38:05 10° S 19:42:16 90° W 19:46:30 10° N
Cosmos 773 Rocket 4.0 19:39:18 10° SSW 19:44:28 72° ESE 19:49:39 10° NNE
Cosmos 2180 Rocket 4.5 19:39:28 10° N 19:45:41 80° E 19:51:48 10° SSE
Cosmos 1606 2.8 19:42:36 10° N 19:46:21 60° E 19:50:05 10° SSE
USA 186 4.2 19:43:58 10° SSW 19:46:23 21° W 19:48:41 10° NW
ATLAS 3B R/B 3.0 19:40:39 10° NW 19:47:42 68° NE 19:55:03 10° SE
BREEZE-M DEB (TANK) 2.0 19:43:40 10° WSW 19:47:45 82° SSE 19:49:43 10° ENE
Cosmos 371 Rocket 3.7 19:43:23 10° NNW 19:48:04 48° ENE 19:52:43 10° SE
RESURS DK-1 2.3 19:48:18 10° SSW 19:52:25 69° ESE 19:56:34 10° NNE
Cosmos 1633 2.7 19:49:04 10° S 19:52:34 52° E 19:56:06 10° NNE
OBJECT-B 3.2 19:51:09 10° SSW 19:53:44 22° W 19:56:20 10° NW
Cosmos 2151 3.7 19:53:32 10° SSE 19:57:20 33° E 20:01:12 10° NNE
Cosmos 2369 4.0 19:52:32 10° NNW 19:58:10 70° WSW 20:03:45 10° SSE
Cosmos 1825 3.9 19:55:32 10° SW 19:58:59 35° WNW 20:02:29 10° N
USA 276 3.0 19:56:15 10° WNW 19:59:19 44° N 20:02:21 10° E
Cosmos 1980 Rocket 2.2 19:54:37 10° NNW 20:00:17 89° WSW 20:05:56 10° SSE
BREEZE-M DEB (TANK) 3.3 19:58:51 10° SW 20:02:12 53° SE 20:12:49 10° ENE
Cosmos 1933 4.2 20:00:23 10° N 20:04:06 33° ENE 20:07:08 14° SE
ERS-1 Rocket 4.2 20:00:38 11° ESE 20:04:37 27° ENE 20:08:50 10° N
COSMOS 2406 4.1 19:59:48 10° SW 20:05:21 54° WNW 20:10:58 10° NNE
SPOT 5 4.0 20:02:24 11° ESE 20:05:33 24° ENE 20:09:02 10° NNE
MetOp-B 4.2 20:01:21 10° SSE 20:06:39 68° ENE 20:11:59 10° N
ARIANE 5 R/B 3.7 20:03:38 12° SE 20:07:06 30° ENE 20:10:59 10° N
Terra 3.4 20:04:38 10° ESE 20:08:01 21° ENE 20:11:31 10° NNE
Cosmos 158 Rocket 4.3 20:05:01 10° S 20:09:52 44° ESE 20:14:51 10° NNE
SPOT 3 Rocket 3.6 20:04:46 10° SSE 20:09:59 82° ENE 20:15:15 10° NNW
Cosmos 2322 Rocket 3.4 20:05:14 10° N 20:10:08 29° NE 20:14:40 11° ESE
Gbstr 26 Del rocket 3.3 20:10:31 10° WNW 20:14:10 51° NNE 20:17:56 11° E
Spot 2 Rocket 4.0 20:11:55 14° SE 20:16:10 47° ENE 20:21:04 10° N
Meteor 2-3 Rocket 4.0 20:13:36 10° SSE 20:19:00 48° E 20:24:28 10° NNE
Cosmos 332 Rocket 3.9 20:20:08 10° NNW 20:25:00 64° ENE 20:28:37 18° SE
Cosmos 1076 Rocket 3.8 20:22:15 10° SSW 20:26:34 69° W 20:30:56 10° N
ISS -3.8 20:23:10 10° WNW 20:26:34 89° NE 20:28:39 21° ESE
ERS-2 3.5 20:23:55 10° N 20:27:23 41° WNW 20:30:49 10° SW
Cosmos 1151 Rocket 4.0 20:24:46 10° N 20:28:40 31° ENE 20:31:00 19° ESE
Cosmos 1092 Rocket 4.0 20:24:51 10° S 20:31:00 65° E 20:37:16 10° NNE
Cosmos 2219 Rocket 4.4 20:29:33 10° N 20:32:26 14° NE 20:35:19 10° ENE
Landsat 7 4.5 20:28:15 10° S 20:32:53 54° W 20:37:34 10° NNW
Cosmos 1782 3.4 20:30:15 10° N 20:34:06 42° ENE 20:36:11 23° SE
Cosmos 1538 Rocket 4.1 20:31:53 10° SSW 20:37:07 81° WNW 20:42:20 10° NNE
SL-16 R/B 2.5 20:32:37 10° NNW 20:38:13 56° ENE 20:42:00 21° SE
Meteor 2-19 Rocket 4.4 20:33:14 10° S 20:39:16 85° E 20:45:22 10° N
Cosmos 2098 Rocket 3.8 20:39:52 10° SW 20:42:44 37° WNW 20:46:03 10° N
Cosmos 2026 Rocket 4.0 20:39:16 11° S 20:45:20 67° E 20:51:34 10° NNE
Cosmos 1271 Rocket 2.7 20:43:47 10° N 20:47:47 82° E 20:50:02 25° SSE
CZ-2C R/B 3.9 20:46:58 10° N 20:51:29 73° WNW 20:55:56 10° SSW
GP-B 3.0 20:47:06 10° N 20:51:34 79° E 20:54:30 21° S
Cosmos 1627 Rocket 4.5 20:52:29 10° S 20:58:50 86° E 21:05:10 10° N
ATLAS 5 CENTAUR R/B 4.3 20:58:09 10° NNW 21:01:46 18° NNE 21:05:47 10° ENE
Cosmos 304 Rocket 4.0 20:57:30 10° NNW 21:02:16 64° WSW 21:05:03 24° S
Okean 3 Rocket 3.6 21:04:43 28° SSE 21:06:56 64° E 21:11:25 10° NNE
Cosmos 2082 Rocket 4.0 21:05:56 10° WSW 21:10:58 33° NW 21:16:04 10° NNE
Cosmos 220 Rocket 4.1 21:10:15 10° NNW 21:14:34 65° ENE 21:16:06 38° SE
Resurs 01 Rocket 4.1 21:14:28 10° SW 21:17:22 17° W 21:20:19 10° NW
BREEZE-M DEB (TANK) 3.3 21:15:43 10° WNW 21:19:12 50° SSW 21:23:01 27° SE
Cosmos 2360 Rocket 2.5 21:17:28 10° NNW 21:23:02 57° ENE 21:25:36 31° SE
Cosmos 923 Rocket 4.2 21:18:15 10° SSW 21:23:35 73° WNW 21:28:57 10° NNE
Cosmos 1408 Rocket 3.7 21:24:14 42° SE 21:25:14 52° E 21:29:28 10° NNE
Meteor 1-10 Rocket 4.4 21:20:22 10° N 21:25:51 58° ENE 21:28:05 34° SE
Cosmos 1553 Rocket 3.9 21:21:12 10° N 21:27:19 88° E 21:30:30 30° S
Cosmos 2333 Rocket 3.3 21:24:49 10° NNW 21:29:59 35° NE 21:32:47 22° E
Meteor 2-14 Rocket 4.4 21:27:36 26° S 21:31:20 82° E 21:37:30 10° N
Cosmos 2266 Rocket 4.3 21:29:47 33° SE 21:32:06 48° E 21:38:03 10° NNE
USA 276 2.6 21:32:29 10° WNW 21:35:05 49° WSW 21:35:05 49° WSW
Cosmos 2056 Rocket 3.5 21:30:14 10° NNW 21:35:39 82° ENE 21:37:36 40° SSE
Cosmos 1812 2.7 21:32:35 10° NNW 21:36:27 75° W 21:37:16 52° SSW
USA 267 3.3 21:31:13 10° ENE 21:37:39 55° SE 21:44:02 10° SSW
ATLAS 3B R/B 4.0 21:31:54 10° NW 21:38:02 32° WSW 21:42:22 18° SSW
Cosmos 2228 Rocket 4.0 21:39:12 10° N 21:43:13 33° ENE 21:43:53 31° E
ERS-1 Rocket 3.8 21:40:38 24° SSW 21:43:14 42° W 21:48:00 10° NNW
SPOT 5 3.7 21:41:37 25° SW 21:43:28 37° W 21:47:32 10° NNW
ARIANE 5 R/B 4.1 21:41:12 20° SW 21:43:30 31° W 21:47:29 10° NNW
Cosmos 2084 3.2 21:42:48 54° SSW 21:43:36 74° SE 21:47:46 10° NE
SL-27 R/B 2.4 21:44:33 68° E 21:44:33 68° E 21:47:59 10° NNE
Terra 2.3 21:43:31 33° SSW 21:45:24 54° W 21:50:05 10° NNW
NOSS 2-1 (C) 3.1 21:46:53 58° NE 21:46:53 58° NE 21:49:41 10° NE
Cosmos 1655 Rocket 4.0 21:43:54 35° SSE 21:46:43 70° E 21:53:06 10° NNE
Cosmos 1515 Rocket 3.5 21:44:19 10° N 21:48:48 90° W 21:49:45 55° S
Cosmos 2237 Rocket 4.4 21:49:07 10° N 21:52:48 17° NE 21:56:28 10° E
NOSS 2-1 (D) 3.0 21:54:20 70° NNE 21:54:20 70° NNE 21:57:23 10° NE
Cosmos 2322 Rocket 2.6 21:49:00 10° NW 21:54:28 52° WSW 21:56:28 35° SSW
Cosmos 1371 Rocket 4.3 21:51:40 10° NNW 21:56:58 60° WSW 21:58:42 40° SSW
S3M 4.0 21:50:35 10° N 21:57:00 83° W 21:59:44 37° S
Cosmos 1680 Rocket 4.3 21:54:17 11° SW 21:59:12 49° WNW 22:04:19 10° NNE
H-2A R/B 3.6 21:55:19 10° N 21:59:30 70° WNW 22:00:38 46° SW
Gbstr 26 Del rocket 3.6 21:57:16 10° WNW 22:00:26 38° SW 22:00:26 38° SW
IRIDIUM 103 4.4 21:57:12 10° N 22:02:23 61° E 22:03:31 48° SE
ISS -1.2 22:00:49 10° W 22:01:36 13° WSW 22:01:36 13° WSW
Cosmos 1862 4.1 22:02:44 36° WSW 22:03:51 47° WNW 22:07:44 10° N
COSMOS 2455 3.1 22:05:54 44° SE 22:06:48 47° ESE 22:12:32 10° NE
USA 234 3.5 22:07:28 23° ESE 22:11:47 68° NNE 22:18:18 10° NW
ALOS 2 3.5 22:13:01 34° E 22:13:34 35° ENE 22:17:34 10° N
COBE Rocket 3.6 22:16:53 65° SE 22:17:31 81° ENE 22:22:13 10° N
Cosmos 2219 Rocket 2.4 22:12:02 10° NNW 22:17:37 62° ENE 22:19:12 44° ESE
IRIDIUM 106 4.2 22:15:25 10° N 22:20:41 86° E 22:21:45 58° S
SL-16 R/B 3.7 22:17:26 10° NW 22:21:55 25° WSW 22:23:52 21° SW
Cosmos 2333 4.1 22:18:22 10° NNW 22:24:00 86° WSW 22:25:16 56° SSE
COSMOS 2428 2.9 22:22:25 10° NNW 22:28:05 61° ENE 22:29:40 44° ESE
Cosmos 1805 Rocket 3.4 22:32:29 82° SE 22:32:36 83° E 22:37:04 10° N
Cosmos 494 Rocket 4.3 22:33:21 46° ESE 22:33:21 46° ESE 22:38:12 10° NNE
Cosmos 292 Rocket 4.2 22:29:51 10° NNW 22:34:26 48° WSW 22:34:52 46° WSW
Cosmos 1048 Rocket 3.9 22:36:20 62° SE 22:36:38 64° ESE 22:41:43 10° NNE
Cosmos 1515 4.2 22:34:33 10° N 22:37:44 52° NE 22:37:44 52° NE
Cosmos 1500 Rocket 4.4 22:43:11 38° WSW 22:44:01 42° WNW 22:48:15 10° N
CZ-3B R/B 2.1 22:36:04 10° WNW 22:44:05 77° NNE 22:44:24 70° E
ATLAS 5 CENTAUR R/B 2.7 22:42:00 10° NNW 22:47:24 58° NE 22:50:00 34° ESE
Meteor 1-27 Rocket 4.3 22:43:39 10° NNW 22:49:03 49° W 22:50:25 40° SW
NOSS 3-1 (C) 4.1 22:48:19 10° NW 22:55:50 68° WSW 22:58:46 44° S
Cosmos 972 Rocket 4.3 22:55:31 45° SW 22:56:58 62° WNW 23:01:59 10° NNE
NOSS 0 Rocket 4.2 22:52:17 10° NNW 22:58:29 64° ENE 23:00:29 43° ESE
Cosmos 1666 4.4 23:02:00 25° ENE 23:02:00 25° ENE 23:04:25 10° NNE
Cosmos 2285 Rocket 4.1 22:57:16 10° NNW 23:03:29 64° WSW 23:04:48 52° SSW
Thor Agena Rocket 4.2 23:01:20 10° NNE 23:06:00 38° E 23:06:00 38° E
Cosmos 2360 Rocket 3.6 23:02:13 10° NW 23:06:37 24° WSW 23:07:21 23° WSW
Meteor 1-20 Rocket 4.3 23:05:25 54° SW 23:06:37 70° WNW 23:12:18 10° N
Cosmos 1452 Rocket 3.9 23:03:07 10° NNW 23:08:09 47° WSW 23:08:29 47° WSW
USA 229 DEB 3.8 23:02:09 10° NW 23:09:30 82° SW 23:12:08 46° SSE
USA 229 3.8 23:02:14 10° NW 23:09:36 82° SW 23:12:15 46° SSE
Cosmos 1470 Rocket 4.3 23:11:57 42° ENE 23:11:57 42° ENE 23:15:36 10° NNE
COSMOS 2487 4.0 23:13:20 31° NW 23:13:20 31° NW 23:15:55 10° N
Cosmos 2333 Rocket 2.7 23:09:03 10° NW 23:14:20 42° WSW 23:14:46 41° WSW
Cosmos 1980 4.1 23:08:51 10° NNW 23:14:27 57° ENE 23:16:00 42° ESE
Sich 1 3.7 23:14:38 45° W 23:14:48 46° WNW 23:19:00 10° N
Cosmos 2084 Rocket 4.3 23:12:23 10° NNW 23:16:24 43° NE 23:17:04 40° ENE
Cosmos 1633 Rocket 3.1 23:17:04 78° NNE 23:17:04 78° NNE 23:21:10 10° N
APEX 4.2 23:16:51 62° SSE 23:17:29 67° ESE 23:23:56 10° NNE
Cosmos 1340 Rocket 4.4 23:19:57 26° ENE 23:19:57 26° ENE 23:22:31 10° NNE
Cosmos 1666 Rocket 3.7 23:20:10 70° WNW 23:20:10 70° WNW 23:24:29 10° N
USA 267 3.8 23:14:17 10° NE 23:20:41 58° NNW 23:27:04 10° WSW
SL-08 R/B 4.4 23:21:43 58° S 23:23:04 89° W 23:29:18 10° N
Cosmos 2322 4.5 23:20:21 10° NW 23:25:32 36° WSW 23:25:53 36° WSW
PSLV R/B 4.3 23:21:07 10° NNE 23:25:38 48° E 23:25:38 48° E
CZ-2D R/B 4.5 23:28:00 10° ENE 23:29:13 11° E 23:30:27 10° E
NOSS 3-1 (A) 4.1 23:22:25 10° NW 23:29:57 67° WSW 23:32:41 45° S
Meteor 1-18 Rocket 4.3 23:25:40 10° NNW 23:31:30 69° W 23:32:22 59° SW
Cosmos 2297 Rocket 2.5 23:32:09 49° ESE 23:32:26 50° ESE 23:37:53 10° NE
CZ-4C R/B 4.4 23:27:50 10° NNW 23:33:53 32° NNE 23:40:51 10° E
Cosmos 1110 Rocket 4.3 23:30:17 10° NNW 23:35:28 53° WSW 23:35:37 53° WSW
Cosmos 1709 Rocket 4.5 23:34:50 42° SE 23:36:17 50° E 23:42:23 10° NNE
Cosmos 2237 Rocket 2.2 23:32:08 10° NNW 23:37:50 78° ENE 23:38:58 58° SE
Okean 1 4.5 23:34:19 10° NNW 23:37:21 35° WNW 23:37:21 35° WNW
Cosmos 1331 Rocket 4.3 23:36:47 10° NNW 23:41:51 51° WSW 23:41:53 51° WSW
Cosmos 1862 Rocket 4.0 23:39:12 10° NNW 23:43:02 52° WNW 23:43:02 52° WNW
Cosmos 1500 4.2 23:44:24 40° NW 23:44:24 40° NW 23:47:33 10° N
Cosmos 2227 Rocket 2.6 23:43:37 45° ESE 23:43:57 46° ESE 23:49:20 10° NE
Cosmos 1745 Rocket 3.9 23:43:09 58° S 23:44:30 88° W 23:50:50 10° N
Meteor 1-11 Rocket 4.3 23:46:25 41° ESE 23:47:12 43° E 23:52:25 10° NNE
ALOS 2 4.2 23:50:25 25° W 23:50:25 25° W 23:53:36 10° NW
COSMOS 2455 4.0 23:49:00 18° WSW 23:52:52 37° NW 23:58:27 10° NNE
